Theta_e
326 320 316 313 311 310 312 310 298 302 300 293 291 293 293 298 300 298 298 296 294 296 297 297 295 297 298 294 293 294 292 292 291 285 286 293 305 314 316 315 315 318 320 322 328 332 335 338 340 340 340 340 339 339 338 335 336 333 334 333 332 332 332 331 331 331 331 330 330 329 329 328 328 328 327 327 326 326 327 327 327 328 329 329 328 329 329 329 330 331 331 330 329 331 331 331 332
321 319 316 313 311 316 306 308 298 296 296 293 294 295 296 298 297 296 296 296 294 297 295 294 294 294 294 293 293 294 294 296 295 296 298 305 309 311 314 316 317 318 320 324 328 332 333 335 340 340 340 340 339 339 336 336 334 334 333 333 332 332 332 332 330 331 331 331 330 329 328 328 327 326 327 326 326 326 326 326 326 327 327 327 328 328 328 328 330 329 329 329 330 331 330 331 332
324 319 311 314 314 311 308 306 295 292 291 290 295 297 299 297 295 296 297 296 296 296 294 295 294 297 295 295 296 295 292 295 296 300 303 307 308 308 314 316 318 320 321 324 328 331 333 334 339 339 339 340 339 338 336 336 334 334 333 333 332 332 332 331 331 331 331 330 330 329 329 327 325 327 326 325 325 326 325 326 326 325 326 327 328 329 328 329 329 329 328 329 330 330 331 332 332
325 321 315 311 305 311 302 300 295 292 290 291 293 300 298 298 297 297 296 297 296 295 296 297 296 298 295 293 297 296 292 297 297 301 304 306 307 308 315 316 318 320 322 324 328 330 331 334 339 339 339 339 338 338 337 336 335 335 334 333 332 333 332 331 331 330 331 330 330 329 328 327 327 327 327 326 326 326 326 326 325 325 326 326 328 328 328 328 328 328 329 329 330 331 331 332 333
318 319 313 311 308 303 302 298 295 292 290 291 292 299 298 297 297 299 296 297 296 295 296 296 295 297 297 298 295 295 293 295 298 301 303 306 306 312 314 317 320 320 322 323 327 330 329 335 339 339 339 339 338 337 337 336 335 335 334 333 332 332 331 332 331 330 330 330 330 329 328 327 327 327 326 326 325 326 325 324 324 325 325 326 327 327 327 328 327 328 329 330 330 331 332 333 333
315 316 318 312 304 308 301 294 292 292 296 297 296 299 299 297 299 298 297 298 297 295 295 295 297 296 296 296 295 294 294 298 298 300 302 305 308 315 314 319 319 320 321 323 327 328 328 336 339 339 339 339 339 338 337 336 335 335 334 333 333 332 332 331 331 331 330 330 330 329 327 327 327 327 326 325 325 325 324 324 324 324 325 326 327 328 327 327 327 328 329 329 330 331 332 332 332
313 307 308 307 307 307 294 291 292 292 296 299 299 301 301 298 300 301 299 297 298 297 296 296 296 297 296 296 298 297 295 301 301 301 305 305 311 314 314 318 319 319 320 322 325 327 326 335 339 338 339 339 339 338 337 336 336 334 334 333 332 332 332 332 331 330 330 330 330 328 327 327 327 326 326 325 325 324 324 323 323 323 324 325 327 327 327 326 327 327 328 329 330 331 332 331 331
317 306 305 299 298 299 292 291 292 292 294 299 300 301 301 300 300 299 299 298 298 297 297 295 295 298 295 298 295 295 299 300 301 303 305 309 312 313 314 317 317 318 319 321 323 325 328 335 338 338 338 338 339 338 337 336 335 334 334 333 332 332 332 332 331 330 330 330 329 328 327 327 327 326 325 324 324 324 322 322 321 322 323 324 326 327 327 326 327 327 329 330 331 331 332 331 330
309 307 307 301 295 296 291 292 294 296 297 299 300 303 307 303 302 300 300 301 300 296 296 296 294 296 294 297 294 295 296 301 308 311 309 310 312 313 314 317 317 318 318 319 321 323 325 334 337 338 338 338 337 337 337 336 334 334 334 333 332 332 332 332 331 330 330 330 329 327 327 327 326 326 325 324 324 323 322 320 320 320 321 323 326 327 327 327 326 327 329 330 330 331 331 330 330
305 303 296 296 295 292 291 291 291 295 297 300 301 303 305 304 302 301 301 300 300 297 296 296 295 297 296 295 295 298 298 304 308 307 308 310 312 312 312 316 318 318 317 318 318 323 325 331 336 337 337 337 337 337 336 335 334 334 334 333 332 332 332 332 331 331 331 330 329 327 327 327 326 326 325 324 324 323 320 319 319 319 318 321 324 327 326 326 326 327 328 330 331 330 330 330 329
305 304 304 298 293 291 290 291 292 295 298 300 302 305 306 306 301 300 299 300 299 297 295 295 297 294 295 295 295 297 298 303 307 307 308 309 310 311 312 313 316 318 317 316 318 323 325 329 333 335 336 337 337 337 336 335 335 334 334 333 333 333 332 331 331 331 331 330 328 327 327 327 326 325 324 324 323 321 319 317 318 317 317 319 323 325 326 326 327 327 329 330 330 330 330 329 330
302 299 300 293 292 292 292 292 294 295 298 299 300 304 307 304 299 298 299 297 297 294 295 296 296 295 295 293 294 294 297 303 306 307 308 307 309 309 311 312 313 316 316 317 319 322 324 326 330 332 335 335 335 336 335 335 334 333 333 333 332 332 331 331 331 330 330 329 328 327 327 327 326 325 324 323 322 320 318 317 317 316 316 317 321 323 325 325 327 327 328 329 329 329 329 330 331
302 301 298 293 293 292 293 292 294 296 296 298 299 304 306 302 299 298 296 296 296 297 296 298 298 297 294 293 293 295 298 302 302 306 307 307 308 305 308 310 312 313 314 318 320 321 323 325 328 329 332 334 334 333 333 334 334 333 333 332 331 331 331 330 330 330 329 328 327 326 326 326 326 325 324 322 321 319 318 317 316 316 316 317 318 322 325 326 326 327 328 328 329 329 329 330 329
302 299 298 292 295 294 294 293 293 294 294 299 301 304 305 303 300 299 297 297 297 296 299 299 298 298 295 295 294 292 295 297 298 300 307 307 306 304 305 309 310 311 313 318 320 320 322 324 326 326 328 330 329 331 332 332 333 333 333 332 331 330 330 329 329 328 328 327 326 326 325 325 325 324 323 322 321 319 318 317 317 317 317 317 317 320 324 326 326 326 327 328 329 329 329 328 327
302 301 299 294 291 292 295 294 294 293 294 298 301 303 303 304 303 300 298 297 300 298 300 299 298 297 292 295 295 296 297 295 297 300 307 306 306 305 304 307 310 309 311 317 319 319 321 322 323 324 325 325 325 325 326 329 332 331 331 331 331 331 330 329 328 328 327 327 327 326 326 325 324 323 322 322 320 320 319 318 317 316 316 316 316 318 322 325 326 326 326 328 329 329 327 327 326
302 299 296 291 290 290 291 294 294 294 295 298 300 302 301 303 302 299 300 300 299 299 299 298 300 298 296 296 296 296 297 298 298 303 306 305 305 306 305 307 308 308 309 315 316 318 320 320 320 321 322 323 322 322 323 324 329 330 330 330 330 330 329 328 327 326 325 325 325 324 324 321 322 319 322 316 319 319 318 317 318 316 314 314 314 316 320 323 325 325 326 327 328 328 328 327 325
303 301 291 289 289 290 292 291 292 292 295 297 300 299 298 300 298 298 299 298 298 297 297 297 299 300 296 297 297 296 298 304 306 304 305 304 304 304 304 306 308 306 310 312 315 316 317 319 319 319 319 320 320 320 320 321 324 329 328 328 328 328 327 326 325 325 324 323 322 321 321 317 310 309 313 309 318 312 319 319 318 316 315 314 314 316 319 322 323 325 325 327 329 328 328 326 323
302 294 290 289 290 290 292 294 294 295 296 297 298 299 298 295 295 298 297 297 296 295 295 295 296 297 299 300 298 298 300 302 303 303 302 303 303 302 303 303 306 308 309 310 311 315 316 317 318 318 318 318 318 319 320 320 321 326 323 323 324 325 326 325 322 318 321 313 320 317 313 313 310 306 305 314 308 310 313 318 318 317 316 316 315 315 318 321 323 324 325 327 328 328 328 312 313
297 290 291 290 291 293 296 296 298 298 298 299 299 298 296 296 297 297 297 294 295 295 295 294 297 298 300 299 299 298 299 301 302 301 301 302 303 303 305 304 305 306 307 309 310 312 315 316 316 316 317 317 317 317 319 319 319 321 320 320 321 324 322 321 317 318 313 311 311 311 310 311 307 305 305 307 307 312 311 316 318 318 317 316 315 315 316 320 322 323 324 325 327 328 316 309 309
294 293 289 290 292 294 297 298 298 299 298 296 297 299 298 297 297 299 297 297 295 295 297 296 296 299 300 301 299 299 300 300 302 301 301 302 303 304 304 304 304 305 308 310 311 312 313 314 315 316 315 315 316 317 317 317 318 319 319 319 319 319 319 319 316 315 312 310 311 309 309 308 306 305 310 312 313 308 309 316 316 318 318 317 317 316 317 320 321 322 322 324 326 319 309 309 308
293 293 289 289 293 294 298 299 300 302 301 299 299 299 298 300 299 297 297 295 295 297 300 299 299 300 301 301 300 299 299 299 300 301 301 301 302 304 304 305 306 306 307 309 308 310 311 313 314 314 314 314 315 315 316 316 317 318 318 317 317 317 317 317 315 313 311 309 309 309 308 306 305 304 301 302 304 306 303 304 306 307 305 303 312 305 307 307 309 307 308 314 311 310 309 307 308
292 291 293 292 292 292 297 299 300 300 301 300 299 296 298 302 300 298 297 295 297 300 302 300 301 302 302 301 300 299 298 298 299 300 300 300 301 302 303 303 304 304 305 304 307 310 310 312 313 313 312 313 314 315 315 316 317 317 317 317 316 316 316 315 314 312 310 309 309 308 308 306 305 303 300 301 304 304 302 300 300 300 300 302 305 303 303 303 304 306 310 311 309 309 308 307 308
291 291 290 292 295 294 296 297 297 298 297 297 295 297 297 297 297 299 299 298 301 305 302 299 299 301 301 300 300 299 298 298 299 300 300 300 300 301 302 303 303 303 303 306 307 307 310 310 311 311 311 311 312 313 313 313 315 316 317 317 316 316 315 315 313 312 311 309 308 308 307 305 303 302 301 301 302 302 301 299 299 300 300 300 302 303 303 304 304 307 309 310 308 309 306 306 306
293 291 291 293 294 294 297 297 296 295 294 295 298 298 296 296 294 299 297 299 302 304 304 303 303 302 298 299 299 299 299 299 299 300 301 301 301 302 302 302 303 303 301 304 304 306 308 309 310 310 310 311 311 311 311 311 313 314 315 317 317 316 315 315 314 312 311 309 308 308 308 306 304 302 302 301 301 300 301 301 300 300 300 301 301 304 305 305 305 307 310 308 308 306 306 305 306
291 291 292 293 294 294 295 295 295 295 295 296 296 294 295 297 297 298 297 300 303 303 303 302 303 301 299 299 300 301 301 301 300 300 300 300 301 303 303 303 303 302 301 302 303 303 305 308 309 309 309 309 311 311 310 310 311 313 314 314 315 316 315 315 315 313 311 310 308 308 307 305 303 303 302 302 301 301 301 301 299 300 301 301 300 302 304 305 305 309 309 307 305 304 305 305 305
290 293 294 294 294 295 295 293 293 293 294 295 293 293 295 297 298 295 297 300 302 303 302 302 302 301 300 300 301 301 301 301 301 300 300 299 300 300 301 302 302 302 303 304 303 303 305 306 307 309 309 309 310 311 310 310 311 312 313 313 314 314 314 315 313 313 312 310 308 307 308 307 304 303 303 301 301 301 300 300 300 300 299 299 300 301 302 303 304 306 306 306 306 304 306 305 304
288 290 291 292 293 293 294 293 295 295 294 294 292 293 294 296 295 292 300 302 302 301 301 301 299 298 299 300 300 300 300 300 300 301 301 299 298 299 301 301 301 302 303 303 303 304 305 305 306 307 308 309 308 310 310 310 311 311 312 313 313 313 313 313 313 313 312 310 310 308 307 307 305 303 302 302 301 301 301 301 300 300 299 299 299 300 301 303 306 310 308 307 305 305 304 303 302
289 290 290 289 291 291 291 291 291 293 292 293 293 292 294 294 293 294 299 296 297 294 294 293 293 294 296 298 298 299 298 299 299 298 298 298 298 298 299 301 301 302 301 303 305 305 304 305 306 306 307 308 307 308 310 310 310 311 311 311 312 312 312 311 312 312 311 311 310 308 307 307 306 303 302 302 301 300 300 300 300 300 300 299 299 299 302 305 308 307 305 306 304 304 303 302 300
290 290 287 288 289 289 291 291 293 291 291 292 292 290 289 290 291 297 299 300 299 297 296 294 295 296 297 297 296 296 297 298 297 296 297 298 299 299 298 300 302 302 303 304 305 304 304 305 305 305 306 306 306 306 308 310 311 311 310 310 310 310 311 310 310 311 311 310 309 308 307 306 306 304 302 302 304 300 300 300 300 301 301 300 298 300 303 305 306 307 307 305 304 304 302 301 301
289 289 286 287 286 286 291 292 292 291 293 292 292 283 288 292 295 297 300 299 297 295 294 293 294 294 295 295 295 295 296 295 295 296 297 298 298 298 298 299 301 302 303 303 302 303 305 306 307 306 305 305 306 306 307 308 310 310 310 309 309 309 309 310 310 310 310 309 307 307 307 306 306 304 303 301 301 300 300 300 300 300 301 299 299 302 305 306 306 307 305 305 305 302 300 298 299
286 286 287 282 282 281 286 288 288 289 290 291 293 284 288 292 295 297 298 296 293 292 290 291 290 291 293 293 293 294 295 295 296 297 297 297 298 298 298 299 298 301 302 301 302 304 304 305 306 305 306 305 306 305 306 306 308 309 309 308 308 308 308 309 309 309 308 307 306 306 306 306 305 304 303 302 300 299 300 299 300 300 300 298 301 302 304 303 306 307 303 303 301 300 299 299 298
285 284 281 281 282 283 287 289 288 287 288 290 291 284 287 291 293 294 294 292 289 289 290 289 290 291 293 293 293 293 295 296 296 296 297 297 297 297 297 298 298 298 301 302 303 303 303 304 306 305 305 304 305 305 305 306 307 308 308 309 307 307 307 307 308 308 307 306 306 305 305 305 305 304 302 302 301 300 300 300 300 300 298 300 301 300 301 305 303 304 303 303 300 297 298 296 296
282 283 280 281 281 282 285 287 287 289 287 289 290 285 288 290 292 292 290 289 289 287 289 291 292 294 294 294 294 293 294 294 294 295 295 296 296 297 297 298 297 298 300 300 301 301 302 304 305 304 304 304 304 304 304 304 306 306 307 307 306 305 306 306 306 307 306 305 305 305 305 305 305 304 303 302 302 300 299 300 300 300 299 301 299 298 299 303 304 305 302 302 302 298 297 296 296
279 282 280 281 282 282 281 285 286 287 287 285 288 286 289 292 292 294 294 292 291 291 291 292 293 294 294 294 293 293 293 294 295 295 295 295 296 296 296 299 298 297 297 299 300 302 303 304 305 305 304 304 304 304 304 304 304 305 305 305 305 305 305 305 305 305 305 304 304 305 304 305 305 303 303 303 301 300 300 300 300 299 300 299 299 298 299 298 301 306 303 300 300 299 296 297 295
277 280 280 281 281 282 283 283 285 288 287 285 285 286 288 290 291 292 293 293 291 291 291 292 293 293 293 293 293 292 293 293 294 296 296 295 293 293 294 295 296 295 297 298 299 301 301 302 304 305 304 303 303 303 302 302 301 301 301 302 302 303 303 303 304 304 305 303 304 304 304 304 305 303 303 302 302 300 300 299 300 299 300 298 299 299 296 297 301 302 304 299 299 298 298 297 297
282 283 282 282 281 284 284 287 287 287 286 284 284 285 288 289 290 292 292 291 290 291 292 291 292 292 292 293 293 292 292 293 294 295 294 295 295 296 295 294 295 296 296 298 299 299 299 300 302 303 303 303 301 301 302 300 300 301 301 299 300 302 302 302 302 304 304 303 303 304 304 304 304 303 302 302 302 301 299 299 300 299 299 299 299 299 296 297 302 302 301 301 298 296 296 297 296
286 285 284 283 283 285 288 288 288 286 285 284 286 287 287 288 289 291 292 292 290 290 290 291 292 293 293 293 293 294 293 294 295 294 294 297 299 298 297 296 295 296 296 297 298 298 300 301 303 303 303 302 302 301 301 301 300 298 299 301 302 302 302 302 302 303 303 303 303 304 304 304 304 303 302 302 301 302 300 298 299 298 299 299 299 299 298 297 302 304 302 300 298 296 295 295 295
286 284 283 284 283 283 287 288 289 287 286 283 285 285 287 289 291 292 293 292 291 291 291 291 292 293 293 292 292 292 293 293 296 299 300 299 298 298 296 296 296 296 296 297 299 300 300 300 302 303 302 302 303 303 303 302 302 302 302 302 302 302 302 302 302 302 303 302 302 303 304 304 304 303 303 302 301 301 299 299 299 299 298 299 299 299 296 300 301 302 301 299 297 297 295 295 296
286 285 285 284 285 285 288 287 288 289 287 285 286 286 288 290 291 293 293 292 293 293 292 293 293 293 293 293 291 291 291 292 297 296 299 299 299 299 297 297 296 295 295 296 297 299 299 300 301 302 302 303 303 303 303 302 302 302 302 300 302 299 300 303 302 302 301 301 301 303 304 304 304 303 302 302 302 301 300 299 299 299 299 299 298 297 297 299 302 303 302 302 297 295 294 295 296
285 285 283 283 285 283 282 288 287 288 287 287 288 286 288 291 292 293 294 293 293 293 292 293 293 293 293 294 293 292 292 293 296 297 299 298 298 298 298 299 298 297 295 295 295 299 300 302 301 302 302 303 303 303 304 302 302 300 300 300 301 302 301 301 301 300 301 300 301 302 304 304 304 303 302 302 302 301 300 299 299 299 299 299 299 298 297 300 302 302 302 301 300 297 294 296 296
285 286 284 284 285 285 285 286 288 288 288 288 287 286 287 288 287 288 289 287 289 290 291 290 290 292 293 293 292 293 294 295 295 295 296 298 299 299 298 298 296 297 296 295 294 295 300 300 301 301 302 302 302 303 303 301 302 299 299 299 300 299 299 300 299 299 301 301 301 301 303 303 303 303 302 302 302 301 300 299 299 299 299 298 299 299 298 300 303 303 303 301 301 300 296 294 296
282 285 287 287 287 286 286 286 286 284 282 285 286 280 280 282 284 285 289 288 290 289 289 291 289 290 291 293 293 293 294 292 295 297 296 295 297 297 298 298 297 295 296 296 294 295 296 297 298 299 299 301 302 302 302 302 302 301 299 299 299 299 299 299 300 301 300 300 301 302 302 302 302 302 302 302 302 301 300 299 299 299 298 298 299 299 299 298 302 302 303 303 301 298 300 294 295
282 285 287 288 286 285 284 284 284 279 279 284 286 279 277 282 286 288 290 289 289 291 290 290 289 291 291 293 293 293 295 294 293 293 294 295 295 295 296 297 297 296 297 295 294 294 295 296 298 300 301 301 301 302 302 303 301 301 301 301 301 301 300 300 300 300 302 300 301 300 302 301 302 302 301 302 302 301 300 299 299 299 299 298 299 298 298 299 302 304 303 303 303 300 298 297 297
283 286 286 287 286 285 284 284 283 282 282 284 285 284 278 280 285 287 287 285 288 289 290 288 288 290 292 292 292 292 293 292 294 294 295 294 293 295 297 299 297 298 297 295 294 294 295 296 297 299 300 301 301 302 301 303 302 301 301 300 301 301 301 300 300 299 300 300 299 300 301 301 301 302 302 301 302 301 301 299 299 299 299 298 299 298 299 298 301 303 303 304 302 301 300 300 297
284 287 288 287 288 285 284 284 283 281 280 280 279 282 279 279 283 286 286 286 287 286 286 286 288 291 291 292 294 293 293 293 293 295 295 294 294 293 294 296 298 296 295 296 296 295 295 294 297 297 299 300 299 300 302 301 302 301 301 301 300 300 300 299 299 299 299 299 299 298 300 300 300 301 302 302 301 301 301 300 299 299 299 298 299 298 298 298 301 302 302 302 302 301 301 299 298
286 287 288 285 284 284 284 282 283 280 277 277 278 280 277 280 281 283 283 282 284 285 287 287 289 289 290 292 292 293 292 292 292 292 292 293 292 292 293 295 296 297 295 295 294 294 294 293 295 296 297 298 299 300 301 301 301 301 300 300 300 299 299 297 298 298 298 298 299 298 299 300 300 300 301 301 301 301 301 300 299 299 299 299 299 298 298 298 299 302 303 303 302 302 299 299 300
287 285 286 281 281 281 279 279 280 277 273 277 279 279 279 277 281 283 282 286 285 285 287 288 288 290 290 291 291 292 292 293 293 293 293 293 293 294 294 295 295 295 293 294 295 294 294 294 295 296 297 298 299 299 300 301 301 301 301 300 300 299 297 297 297 297 297 297 299 298 299 300 300 301 300 300 301 301 301 301 300 299 299 299 299 298 298 298 299 301 302 302 302 302 300 299 299
286 284 282 280 281 278 278 274 275 274 272 277 278 279 279 275 280 283 285 284 283 285 288 288 287 288 291 291 292 291 290 291 292 293 295 294 295 295 293 295 295 294 294 294 293 294 294 294 293 295 294 296 297 299 299 300 300 300 300 300 300 299 298 298 298 298 298 299 299 299 298 298 299 300 299 300 300 300 301 301 300 299 299 299 299 298 298 298 298 299 301 302 302 302 301 300 299
284 281 279 276 271 272 271 273 272 271 273 279 278 279 278 279 285 287 287 288 288 286 287 289 289 288 289 290 291 289 289 290 292 292 293 294 294 295 294 294 293 293 295 293 294 293 294 294 293 294 295 294 297 298 298 299 299 300 300 299 300 299 299 299 299 299 299 299 299 299 298 299 299 299 299 300 301 300 301 300 300 299 299 299 299 298 298 298 298 298 299 300 302 301 302 301 300
282 282 278 273 269 269 266 265 266 269 276 279 278 281 278 282 286 289 290 292 292 292 290 289 289 289 289 291 291 290 290 291 292 292 292 293 294 295 294 294 294 295 293 293 292 293 293 294 293 294 295 294 295 297 298 298 299 300 299 299 300 299 299 299 299 299 299 299 300 300 300 300 300 300 300 301 302 301 301 301 301 301 300 300 299 299 298 298 297 298 298 299 300 302 301 301 302
283 280 282 277 269 266 265 265 270 271 272 277 278 275 274 277 284 286 287 288 287 287 287 287 287 288 288 290 289 289 290 290 289 291 293 295 295 294 295 295 294 293 293 292 291 292 292 294 295 295 295 295 295 297 298 298 299 299 299 299 299 299 300 299 300 300 299 299 299 300 300 301 301 301 301 302 301 301 301 301 300 301 300 300 299 298 299 298 297 297 298 299 300 300 300 301 301
281 280 280 277 278 274 273 269 268 269 270 271 274 276 276 283 285 288 291 290 289 288 288 287 288 289 289 290 291 292 292 292 290 291 293 294 294 293 293 293 294 293 293 291 292 293 293 295 294 295 296 296 295 296 298 299 299 299 298 298 299 299 300 299 299 298 299 300 300 300 300 301 301 301 301 300 300 301 301 301 300 300 300 300 299 298 298 298 297 297 297 297 298 299 300 299 301
280 281 277 279 279 280 273 272 272 272 270 273 273 278 281 284 288 291 287 284 286 285 286 286 288 288 288 291 291 291 292 291 290 292 293 294 291 291 293 293 293 292 292 295 295 295 295 295 295 296 295 294 295 296 297 298 298 297 298 298 298 298 298 299 299 298 298 299 299 300 300 300 300 300 300 300 300 300 301 301 300 300 300 300 299 298 298 298 297 297 297 296 297 298 299 299 299
281 278 278 280 282 281 275 271 266 265 267 271 274 275 279 277 279 285 284 284 283 284 285 287 288 289 288 291 291 292 292 290 290 292 292 292 292 292 293 293 293 295 295 295 295 294 295 296 296 296 296 296 296 296 296 297 297 297 297 298 298 298 298 298 298 298 298 298 298 299 299 299 299 300 301 300 300 300 300 300 300 300 299 299 299 299 298 298 297 297 297 297 297 297 298 298 298
281 280 280 282 274 275 273 268 268 266 264 264 271 274 276 279 281 281 286 286 288 285 285 286 288 288 289 289 290 289 288 288 290 292 293 293 292 293 293 293 294 293 293 294 294 293 293 293 295 296 297 297 297 297 296 297 297 298 299 298 298 298 298 298 297 297 297 298 298 298 298 299 299 299 299 299 299 299 299 300 300 300 299 299 299 298 298 297 297 297 296 296 295 295 296 297 298
280 283 280 278 278 272 270 276 268 270 265 265 269 270 278 280 281 281 286 287 287 285 284 285 287 289 290 289 289 290 290 290 291 292 293 293 293 293 293 293 293 293 294 294 292 291 293 295 294 295 295 293 293 295 296 297 297 298 298 297 297 298 298 298 297 297 297 298 298 298 298 298 299 299 299 299 299 299 299 299 299 300 299 298 298 298 297 297 297 297 297 296 296 295 295 296 297
280 281 276 278 276 277 278 275 273 272 264 263 263 271 277 280 283 283 287 287 288 286 286 286 286 286 287 288 289 290 290 290 291 292 293 293 293 292 292 292 292 290 290 290 291 294 295 294 294 295 295 295 294 295 295 297 297 297 297 297 297 297 297 297 297 297 298 298 298 298 299 299 298 299 299 298 298 299 298 299 299 299 299 298 298 298 297 297 297 297 296 297 296 295 295 296 296
282 282 281 282 279 275 271 273 273 267 271 271 264 274 279 286 286 287 287 287 286 284 285 286 285 286 287 288 288 289 291 291 293 293 292 293 292 291 289 288 287 288 290 290 292 291 291 293 295 295 294 295 295 295 295 297 296 297 296 297 296 296 297 296 296 296 297 297 297 298 298 297 298 298 298 298 298 299 298 298 298 298 298 298 298 298 297 297 297 296 296 297 296 295 295 295 294
Wind_Speed
7 7 7 7 4 3 2 1 3 1 1 5 3 2 6 1 3 3 7 3 1 2 3 1 2 2 1 2 4 3 3 5 6 6 4 2 2 5 6 8 4 8 11 9 11 10 13 17 20 20 19 18 17 17 16 15 14 14 13 13 12 12 11 10 10 8 8 7 7 5 5 4 4 3 3 2 2 2 2 2 2 3 3 3 3 4 5 6 5 6 8 8 8 8 9 10 11
5 7 7 5 3 0 1 1 1 0 1 4 8 1 6 0 3 4 7 7 5 2 3 2 0 2 4 7 4 2 2 6 9 2 2 2 1 1 5 6 8 11 9 9 9 9 10 13 21 19 19 18 18 17 16 15 15 14 14 13 13 12 11 11 10 9 8 8 7 6 5 5 5 4 3 3 3 2 2 2 2 3 3 3 4 5 6 5 6 6 8 8 8 9 10 11 11
4 6 8 5 0 1 1 1 3 3 5 8 8 7 1 4 3 7 6 8 5 2 1 1 2 1 2 2 1 3 4 1 1 1 0 2 1 6 7 6 8 9 10 8 9 9 8 11 19 19 19 18 18 17 16 16 15 15 14 14 13 13 12 11 11 10 9 8 7 6 6 6 5 5 4 3 3 3 2 2 2 3 3 3 4 5 5 5 5 6 7 7 8 10 10 10 11
3 0 0 2 2 1 2 0 2 6 6 6 5 11 4 2 6 6 6 6 4 1 1 1 2 1 3 1 2 1 3 1 5 5 0 4 9 4 9 9 8 6 7 8 9 9 8 13 19 19 19 19 18 17 17 16 16 15 14 14 14 13 12 12 11 10 10 9 8 8 7 6 6 5 4 4 3 3 2 2 2 2 3 3 4 5 4 4 5 5 6 7 8 9 10 11 12
4 2 3 0 0 2 2 3 4 4 9 4 6 4 2 2 3 8 4 5 4 3 2 1 0 1 1 1 1 1 4 4 3 5 1 3 1 5 9 8 8 8 8 8 9 9 8 15 17 20 20 20 18 18 17 17 16 16 15 14 14 13 13 12 12 11 10 10 9 8 8 7 6 5 5 4 4 3 3 2 2 3 2 3 4 5 4 5 5 6 6 8 8 9 10 11 11
3 3 1 1 2 1 1 2 3 6 5 5 6 8 2 2 3 5 7 7 6 4 4 1 2 3 1 2 4 2 4 1 2 2 3 6 6 8 10 8 8 8 7 8 8 8 8 17 17 20 19 20 19 18 18 17 17 16 16 15 14 13 13 12 12 11 11 10 9 9 8 8 7 6 5 5 4 4 3 3 2 2 3 3 3 5 4 4 4 6 7 8 8 9 10 10 10
2 3 0 1 2 1 5 4 7 5 7 4 5 10 5 4 5 7 8 4 3 4 4 3 0 1 1 2 1 3 4 0 3 3 9 2 7 9 10 8 8 9 8 8 8 8 9 17 16 20 20 20 19 19 18 18 18 17 16 15 14 14 13 13 12 12 11 10 10 9 9 8 8 7 6 5 5 4 3 3 2 2 2 3 4 4 5 5 5 5 7 7 8 9 10 10 10
0 1 2 3 4 1 4 5 7 5 5 8 4 10 8 5 5 2 7 1 5 4 4 4 3 1 4 2 2 2 1 2 3 2 4 6 7 8 9 9 9 8 8 8 7 7 10 16 16 18 19 19 19 19 19 19 18 17 16 15 15 14 14 13 13 12 11 11 10 10 9 9 8 7 7 6 5 5 4 3 3 2 3 3 4 4 5 4 6 5 6 7 8 9 9 9 9
2 1 1 0 4 0 2 7 6 4 4 3 6 8 12 6 6 3 7 5 6 4 3 3 5 2 3 0 3 2 4 1 1 2 6 8 10 10 9 10 10 8 9 8 7 6 8 14 15 17 18 19 20 19 19 18 18 17 16 16 15 15 15 14 13 13 12 11 11 10 10 9 8 8 7 7 6 5 4 3 2 2 2 3 4 4 4 5 6 6 7 7 8 9 9 8 9
3 2 2 3 3 10 5 5 5 5 7 6 8 11 12 4 5 4 8 9 10 2 5 0 1 4 1 2 2 4 1 1 4 4 5 9 10 8 8 10 10 12 9 9 7 8 8 13 16 16 17 17 18 18 18 19 18 17 17 16 16 15 15 14 13 13 12 12 11 10 10 9 9 8 8 7 7 6 4 4 3 3 3 3 4 5 5 5 5 5 7 7 7 8 8 8 9
2 2 2 4 7 9 11 7 6 3 5 3 6 8 10 9 4 6 5 9 5 4 2 2 1 5 1 3 4 2 3 2 7 9 8 7 7 9 8 7 7 10 11 10 9 8 8 10 16 16 16 16 16 17 18 18 18 17 17 17 16 15 15 14 14 13 13 12 11 11 10 10 10 9 8 7 6 5 4 4 3 3 3 3 4 5 5 5 6 6 7 7 7 7 7 8 10
1 1 2 7 9 10 7 8 8 6 5 5 6 6 5 7 2 5 9 6 2 4 4 8 3 5 1 2 3 2 3 3 6 4 6 5 7 7 7 6 6 7 9 10 8 8 8 8 10 14 16 16 16 16 15 17 18 18 17 17 16 15 15 15 14 13 13 12 12 11 11 10 10 9 8 7 6 5 5 5 4 4 4 4 4 5 5 5 5 6 6 7 7 6 7 9 11
3 3 4 5 8 4 3 6 8 6 6 9 5 4 6 6 6 6 6 5 3 1 4 9 1 2 2 2 4 4 1 11 5 3 6 6 6 5 4 5 6 6 7 7 9 9 9 9 10 10 12 17 15 15 15 15 17 17 17 17 16 16 15 15 13 13 13 12 12 11 11 10 9 9 8 7 6 6 5 5 5 5 4 4 5 4 5 6 5 6 7 7 6 6 8 10 10
5 6 4 7 1 5 6 7 2 8 9 2 4 5 4 3 5 7 3 5 6 2 2 6 1 3 3 2 6 3 7 5 5 4 4 5 4 4 5 4 5 5 6 7 9 9 9 9 9 9 10 11 9 12 14 15 15 16 16 16 16 16 15 15 14 14 13 12 12 11 10 10 9 9 8 7 7 7 6 6 6 5 4 4 5 5 6 6 6 6 7 7 7 6 8 9 10
4 2 2 2 3 4 6 9 9 7 10 4 4 5 4 6 9 6 6 5 12 4 0 2 4 3 4 4 8 5 7 4 6 5 5 4 3 3 3 4 5 4 5 6 6 8 9 9 9 8 8 8 9 8 7 11 16 14 14 14 15 15 14 14 14 12 12 11 11 9 9 9 9 9 8 8 7 8 7 7 6 5 5 5 5 6 6 6 6 7 7 7 7 6 7 9 9
4 4 2 3 9 7 3 8 5 7 8 5 5 8 7 7 5 5 5 5 3 1 1 3 0 4 2 5 5 5 5 3 5 5 5 5 2 2 2 4 5 4 5 6 7 7 8 9 8 8 8 8 8 7 7 7 12 14 14 14 14 13 13 13 12 12 11 10 10 9 9 6 8 6 9 6 7 8 8 6 6 7 7 6 6 7 7 7 8 8 8 7 7 7 7 9 8
2 2 3 4 11 6 3 4 6 10 1 5 6 3 5 5 3 2 0 1 2 4 1 3 4 0 4 6 7 1 2 4 7 6 5 4 4 3 1 2 4 4 4 7 7 7 7 9 9 8 8 8 8 7 7 7 8 13 12 14 13 13 13 12 12 12 10 9 8 8 8 6 4 4 4 2 6 4 5 6 7 7 8 7 7 7 7 8 9 8 8 8 7 7 8 7 8
2 4 4 9 5 6 2 5 4 2 3 3 4 5 5 5 3 3 1 2 2 3 4 5 5 5 5 4 4 2 3 7 6 9 6 6 4 5 4 5 5 9 9 7 6 7 8 9 10 9 8 9 8 8 6 6 6 10 7 8 8 10 11 11 9 6 7 5 8 7 5 5 5 4 4 4 3 3 5 8 7 8 8 8 7 7 8 9 9 9 8 8 8 7 8 3 3
5 1 5 12 4 4 1 2 6 4 6 5 4 6 2 6 1 2 3 4 3 4 5 3 6 9 9 9 3 3 5 4 7 7 10 9 9 11 11 8 8 5 6 7 8 10 9 8 7 9 10 9 9 8 7 7 7 7 6 7 7 9 7 9 7 6 5 5 5 5 5 5 5 4 4 4 4 6 5 7 8 8 9 8 7 8 8 9 9 8 8 8 9 7 3 2 3
4 5 7 7 3 3 5 5 10 6 5 8 8 8 7 5 2 0 6 10 6 8 11 6 7 11 10 10 4 3 5 6 6 8 10 12 12 13 11 9 9 9 10 11 12 8 7 8 10 10 10 9 9 8 7 7 7 7 7 7 7 7 7 7 6 6 6 6 6 6 6 5 4 5 5 7 6 4 5 7 9 9 8 7 7 6 7 8 9 7 8 10 6 3 2 2 2
2 5 6 3 5 6 8 11 12 13 10 8 7 8 10 9 7 3 4 7 8 9 14 11 12 12 14 11 7 4 6 6 6 6 9 13 12 8 10 13 14 14 12 8 4 8 11 11 9 10 9 9 10 8 8 8 8 7 7 7 7 7 6 6 6 6 6 6 6 6 5 4 4 4 4 3 4 4 4 4 4 4 3 4 5 4 4 4 4 4 4 5 3 2 0 2 2
2 7 6 6 2 4 7 11 10 8 10 11 9 10 11 8 7 6 8 14 12 13 8 8 13 13 12 11 9 5 7 9 10 10 13 14 13 13 11 8 7 5 1 4 12 10 11 12 11 9 8 9 11 10 11 9 8 8 8 8 7 7 7 7 6 7 6 7 6 6 5 5 5 4 4 4 4 4 5 5 6 5 3 4 2 4 4 3 3 3 4 4 3 1 1 2 2
7 3 3 6 8 7 4 5 6 7 7 8 6 8 4 6 6 7 10 14 16 16 6 6 7 9 8 7 6 4 7 11 13 15 15 15 12 12 12 11 10 10 9 11 10 9 9 9 10 9 11 10 11 9 8 7 9 9 8 8 9 8 7 8 7 7 7 7 6 6 7 6 6 5 5 4 5 5 6 6 6 4 4 4 3 4 4 3 3 5 4 2 0 1 3 2 3
5 8 2 6 8 11 11 10 9 6 7 9 7 7 11 10 15 10 10 10 20 18 12 12 14 11 5 7 7 8 9 12 14 16 17 18 17 17 16 15 13 10 7 11 8 8 9 13 12 11 11 11 10 10 9 9 8 8 9 8 9 8 8 9 8 8 7 7 7 7 6 6 7 6 5 5 6 4 6 5 5 3 3 6 3 3 4 2 3 4 3 1 1 2 3 3 3
4 6 5 5 6 7 9 10 10 9 10 10 10 12 16 14 15 9 12 14 23 18 8 12 17 11 8 10 13 14 15 14 13 14 11 11 10 12 11 11 10 7 10 11 9 9 11 12 12 13 12 13 11 10 10 9 8 8 8 9 10 8 9 9 9 8 7 7 7 7 6 7 6 6 6 6 5 6 6 4 4 4 4 6 3 4 4 3 3 5 2 2 2 3 3 3 3
5 10 6 6 7 7 8 7 8 9 6 7 9 15 15 18 12 17 18 24 25 14 12 19 19 15 14 15 16 16 17 17 16 12 13 11 10 11 16 13 10 10 15 13 10 11 10 10 12 15 15 13 12 10 10 9 9 9 10 10 9 9 9 9 8 8 8 8 7 7 8 7 7 7 6 5 6 6 5 4 4 5 5 5 4 5 5 3 5 3 2 2 4 3 4 2 3
2 4 8 9 10 7 6 7 9 10 7 7 8 15 18 7 4 12 15 23 14 12 18 17 12 15 15 14 15 16 17 18 17 14 12 9 10 12 15 11 12 16 13 12 11 11 10 10 12 13 13 11 10 11 11 11 9 10 10 9 8 9 8 8 8 8 8 8 8 8 7 7 7 6 6 6 6 6 5 5 5 4 4 4 4 5 2 4 4 4 5 5 4 5 4 2 4
3 5 3 5 8 6 5 6 11 7 6 9 11 17 16 8 4 18 25 3 3 4 8 6 7 9 11 14 14 13 12 14 13 9 13 14 12 11 13 12 15 14 11 14 13 10 8 12 14 13 13 12 12 12 11 10 11 10 9 8 9 8 8 8 8 8 9 8 8 8 8 8 7 7 6 6 6 6 6 6 5 4 6 4 3 3 3 3 4 3 3 3 3 5 4 4 3
3 0 4 7 6 7 7 12 14 4 9 5 4 7 12 4 12 31 19 6 11 14 15 7 12 15 13 13 12 11 13 13 10 9 13 14 12 10 13 14 15 13 12 15 13 9 13 13 12 13 12 12 13 14 12 11 10 9 9 9 8 8 9 8 9 9 9 8 8 8 8 8 7 8 7 7 6 6 6 6 5 5 5 4 3 3 4 3 3 3 3 3 4 5 5 4 4
1 0 3 6 6 7 16 8 12 6 9 5 6 9 12 15 24 26 14 11 11 15 15 9 11 11 10 10 10 11 12 10 11 13 12 12 12 12 13 14 13 13 11 10 7 10 11 7 9 8 11 13 14 12 10 10 10 9 9 9 9 9 9 9 9 8 8 8 8 8 8 8 8 7 7 6 6 6 6 6 6 6 5 3 3 3 4 5 4 4 4 5 3 4 4 2 5
3 3 1 4 3 7 6 3 2 6 3 9 8 10 17 16 17 12 12 7 10 12 8 10 9 8 9 9 8 11 13 10 14 14 14 14 13 11 12 13 9 11 9 6 10 14 10 10 8 8 11 13 12 12 12 12 10 10 10 9 9 10 9 9 8 8 8 8 7 8 8 8 8 8 7 7 6 6 6 6 6 7 5 3 5 5 5 4 5 5 4 5 4 4 4 3 4
1 2 7 3 6 7 6 6 5 6 2 6 9 9 19 19 14 8 4 2 3 8 10 9 9 10 10 10 9 10 12 11 11 12 13 13 12 11 10 13 10 9 11 12 11 8 9 9 9 10 11 13 13 14 13 12 12 11 10 9 9 9 9 9 9 9 8 8 8 8 8 8 8 8 7 7 7 7 7 7 7 5 4 4 5 5 3 5 4 3 2 6 5 3 5 3 3
2 5 5 4 2 7 8 2 3 9 1 1 12 10 3 11 7 6 1 1 1 4 9 11 14 16 14 11 10 9 10 11 10 11 13 13 11 10 11 11 11 12 12 10 10 8 9 10 11 11 13 15 14 13 11 9 9 10 10 10 10 9 9 9 8 8 8 8 8 8 8 9 8 8 8 7 7 7 7 7 6 5 5 5 5 4 4 5 4 3 2 2 5 5 4 4 3
5 0 5 4 5 4 4 8 3 1 4 4 8 9 15 16 9 14 11 6 9 12 13 14 15 14 13 12 11 10 11 11 13 12 13 13 11 10 9 9 10 9 9 9 10 12 13 12 12 13 11 11 11 12 11 10 8 8 7 8 7 9 9 8 7 8 9 8 8 9 9 9 8 8 8 7 7 7 7 7 5 6 6 5 5 4 6 4 3 5 4 1 4 6 4 5 4
5 4 4 7 3 5 9 3 3 1 1 5 6 13 20 17 17 17 15 11 9 14 13 16 17 15 13 11 10 11 11 12 15 12 12 9 7 8 8 9 9 7 8 10 8 9 7 7 8 8 9 9 8 7 6 6 5 4 4 5 6 7 7 6 7 8 9 8 9 9 9 9 8 8 8 8 7 7 6 6 6 5 6 6 5 5 4 4 3 3 5 3 1 2 6 5 6
6 3 2 3 6 8 6 5 5 3 6 6 6 11 15 18 17 15 12 8 11 14 12 13 14 13 12 11 11 11 11 14 13 10 7 6 7 8 8 7 8 7 7 6 7 6 6 5 5 6 6 8 6 6 7 7 6 7 7 4 4 7 7 7 7 9 7 8 9 9 9 8 8 8 8 8 8 7 7 6 6 5 5 6 6 6 5 6 6 5 4 6 4 3 3 5 6
2 2 3 7 7 11 7 5 5 2 2 8 10 11 14 20 16 18 17 11 11 12 15 15 14 12 12 12 12 12 11 14 8 6 7 5 3 2 1 2 3 2 3 5 6 6 7 10 10 10 8 9 9 9 8 9 8 6 4 9 11 8 8 7 7 7 8 8 8 9 8 8 8 8 8 8 8 7 7 6 6 5 6 6 7 7 6 6 5 6 5 4 6 3 1 2 4
5 6 5 8 4 11 7 7 4 2 3 3 4 8 15 18 17 18 17 11 16 15 15 16 16 13 12 12 12 10 11 5 5 3 2 2 2 1 2 3 5 5 3 5 8 9 7 6 9 9 7 8 10 11 10 10 9 10 10 10 7 7 8 9 9 8 9 7 8 8 8 8 9 9 8 8 8 8 7 7 7 7 7 7 6 5 5 4 4 5 5 3 0 5 4 5 6
4 5 5 6 8 5 10 5 2 0 1 7 5 10 19 19 19 21 19 18 15 11 10 14 12 13 11 11 9 8 7 8 2 3 3 3 1 0 2 2 2 1 5 6 5 5 6 7 7 7 8 9 9 9 9 10 8 7 8 6 9 5 5 6 6 6 5 7 8 8 8 8 9 8 8 8 8 8 8 8 8 7 7 7 6 5 5 5 6 7 7 7 3 1 2 4 7
5 3 3 9 2 4 8 2 3 2 0 7 8 12 18 19 19 21 20 13 14 10 9 12 11 13 14 13 8 7 8 5 6 6 7 3 1 0 0 1 1 1 2 2 4 6 6 6 6 7 8 8 8 9 9 7 6 5 4 5 6 7 6 6 5 5 6 6 8 8 8 9 9 9 8 8 7 7 8 9 7 7 8 7 8 8 6 7 6 6 6 6 7 4 3 5 5
3 4 5 7 6 5 6 8 8 7 4 1 4 8 13 12 13 10 8 4 4 6 6 7 8 10 12 9 6 7 8 8 7 5 3 2 3 4 5 3 0 2 2 3 3 4 4 6 6 7 7 8 7 7 8 6 6 5 4 4 4 3 3 5 5 6 9 8 7 8 11 8 9 9 8 9 8 9 8 8 8 8 8 7 7 8 8 8 8 7 8 7 9 7 6 4 6
3 5 10 10 7 7 6 5 8 7 7 3 4 6 6 6 6 9 10 6 10 3 3 9 6 7 6 7 8 4 4 4 6 7 6 5 5 4 3 1 1 1 3 4 3 3 3 3 4 4 4 4 7 7 8 8 8 9 8 8 8 7 7 8 13 13 9 10 12 6 6 8 8 7 8 9 8 8 8 8 8 8 8 8 7 8 7 6 7 8 9 9 7 5 7 5 6
2 6 4 7 6 5 5 6 2 3 3 1 4 2 11 5 11 12 14 12 15 15 8 8 7 9 5 7 5 4 5 5 4 3 3 2 5 3 3 3 4 2 5 2 2 3 3 4 5 6 7 7 7 7 8 8 8 8 11 11 10 11 11 9 6 5 8 7 6 8 8 6 7 9 8 8 8 8 8 8 8 8 8 8 7 7 7 8 8 8 7 7 8 6 5 6 8
5 1 3 3 2 3 3 2 5 5 2 4 2 6 6 13 11 8 8 7 13 14 12 7 8 6 5 5 4 4 5 5 5 5 4 4 3 4 5 5 4 6 2 1 3 3 4 5 6 6 5 6 6 7 8 9 10 9 9 8 9 9 10 8 6 5 4 6 7 6 7 7 7 7 9 8 9 8 8 8 8 8 8 8 8 8 9 7 6 5 7 8 7 7 8 8 7
3 0 2 3 1 1 2 1 2 1 4 10 1 0 1 8 9 7 4 8 10 10 9 7 3 3 4 4 5 5 4 4 4 4 3 3 3 4 4 3 5 3 3 4 5 5 5 4 5 5 6 6 5 7 9 8 8 9 9 8 8 7 7 6 6 5 6 7 7 5 7 7 7 8 8 9 9 9 9 9 9 8 8 8 8 8 7 8 9 9 8 8 8 8 8 6 6
2 1 2 3 3 3 1 1 1 2 1 9 2 5 3 11 4 6 1 3 8 7 6 5 2 3 4 5 5 4 3 2 2 2 2 1 2 2 2 1 1 5 4 4 3 3 4 4 5 5 6 6 6 7 8 9 8 8 9 9 10 7 5 4 6 7 6 7 8 8 7 7 8 8 8 7 8 9 9 8 9 10 10 9 8 9 8 8 8 8 10 10 8 9 6 7 8
1 2 0 3 4 2 2 5 2 2 3 9 9 5 4 7 6 7 3 4 3 2 2 2 1 2 4 6 5 4 2 1 0 0 1 2 2 1 1 4 4 2 2 2 3 3 3 4 5 5 7 6 5 7 7 9 8 7 9 9 9 8 7 7 7 6 6 6 8 8 9 9 8 9 7 7 8 8 9 9 9 9 8 8 8 8 9 9 9 9 8 7 8 10 8 8 6
1 0 1 4 2 5 2 2 3 2 6 6 3 2 2 6 6 6 7 4 2 4 1 3 6 4 5 5 4 4 3 2 1 1 1 1 1 1 1 3 4 4 1 2 3 2 2 3 3 5 4 5 5 6 6 8 8 8 7 8 9 9 9 8 10 10 10 11 10 10 8 7 7 7 7 7 8 9 9 9 8 8 9 8 9 8 8 8 8 7 7 8 8 8 7 8 7
3 3 3 1 4 3 2 1 2 5 6 0 3 2 1 11 13 4 7 9 7 6 5 5 7 6 6 6 6 4 4 4 4 5 4 4 5 5 5 6 4 5 5 4 4 3 2 2 3 4 5 4 5 5 7 7 7 8 8 8 8 7 9 9 10 9 9 10 9 8 8 9 7 8 9 10 11 12 10 10 9 10 9 9 9 8 8 8 8 8 8 8 8 9 9 9 9
5 5 4 4 0 2 4 4 2 5 3 4 1 0 5 5 9 11 18 17 12 11 9 9 9 8 7 9 5 4 5 5 5 5 5 5 6 6 5 5 5 5 5 4 4 4 3 3 3 4 6 5 5 5 7 8 9 9 8 8 8 8 9 9 9 10 9 8 8 9 10 10 10 12 11 12 11 11 9 10 10 10 10 9 9 10 9 9 8 9 9 9 10 9 8 10 10
8 3 8 7 6 4 3 3 4 4 4 2 3 1 7 0 4 1 6 7 5 6 6 7 8 8 5 2 2 4 4 5 4 4 5 6 7 6 6 5 5 5 4 4 4 4 4 5 5 6 6 6 6 8 7 9 9 9 8 8 9 8 9 9 9 8 8 9 8 9 9 9 10 10 11 11 6 9 10 8 9 9 9 9 7 8 8 8 8 8 8 9 8 7 9 9 9
2 3 5 3 7 5 3 4 1 2 2 3 2 6 4 7 5 12 11 9 8 6 9 7 10 8 2 4 6 6 6 6 4 5 6 7 6 5 5 5 5 5 4 4 4 4 4 5 5 5 6 6 6 6 7 8 8 7 7 8 9 9 8 8 7 7 7 9 9 10 10 9 9 8 7 6 7 9 10 10 9 10 8 8 8 8 8 8 8 9 8 7 9 6 8 9 9
2 5 5 6 2 3 1 1 1 2 3 8 1 8 9 7 13 14 9 5 7 2 2 4 9 5 5 7 6 6 7 6 5 6 6 7 5 5 6 5 5 5 4 6 7 7 7 5 5 6 6 5 6 6 7 6 6 6 6 6 6 6 8 9 9 9 8 7 8 8 9 10 8 7 8 7 8 8 9 9 9 9 9 9 8 8 8 8 8 8 8 8 9 7 8 10 9
4 3 6 1 1 3 3 3 1 1 3 6 1 7 10 2 9 6 6 5 4 2 0 1 2 2 5 7 7 8 8 5 5 5 6 6 5 6 5 5 5 6 7 6 7 6 6 6 7 7 6 8 9 8 8 7 7 7 7 7 7 7 7 7 6 7 6 7 7 7 6 7 9 9 8 7 8 9 9 10 9 9 9 8 9 8 8 8 8 8 8 9 9 7 8 7 8
3 1 0 2 2 1 1 3 2 1 2 4 5 4 8 8 10 4 9 8 11 4 0 1 3 5 7 7 7 5 3 3 5 7 7 7 7 7 7 7 7 6 5 6 5 4 4 5 6 7 9 10 8 7 5 6 6 6 6 8 7 7 6 5 5 5 5 7 8 7 8 9 6 6 7 7 8 8 8 9 9 9 8 9 8 8 8 8 8 8 8 8 7 7 8 9 8
1 1 1 0 1 2 4 6 3 3 3 2 6 3 10 8 8 9 9 8 9 6 4 5 8 8 7 6 6 6 6 6 6 6 7 8 8 8 8 8 8 8 8 7 5 3 5 7 6 7 6 5 5 6 6 8 8 7 7 5 6 6 6 7 6 6 7 7 7 7 8 7 8 6 8 8 8 9 9 10 9 9 8 8 8 8 8 8 8 9 9 8 8 8 8 9 9
2 2 3 1 1 3 1 1 3 2 4 3 1 7 9 7 6 5 10 9 9 5 7 6 6 8 8 7 7 7 7 6 7 8 8 8 9 8 8 7 7 5 4 3 4 7 7 5 6 7 9 8 7 7 7 8 7 8 7 8 7 6 7 6 6 7 7 7 7 7 8 8 5 8 7 8 9 9 9 10 10 9 10 9 9 9 8 8 8 9 8 9 8 9 10 10 8
10 12 10 11 7 2 2 9 1 2 2 3 3 10 12 9 6 9 8 6 5 4 5 6 6 7 7 7 7 7 7 9 9 9 8 9 8 8 8 5 4 4 5 5 5 4 5 5 8 7 6 6 7 7 8 8 6 6 8 7 7 5 6 5 6 6 7 7 6 7 6 5 8 8 8 9 10 9 8 9 9 10 9 9 9 9 9 8 10 9 9 7 8 9 10 10 7
Wind_Direction
322 325 319 310 294 235 30 346 259 301 95 248 278 215 256 248 247 333 280 309 307 252 227 290 117 98 184 201 182 186 202 129 203 127 217 234 285 221 200 170 148 147 159 168 176 181 183 186 186 185 184 183 182 181 181 179 179 181 181 183 183 185 187 187 190 193 194 198 204 197 194 210 206 191 192 204 215 231 256 275 311 317 324 330 328 312 315 322 345 347 320 339 340 327 320 329 329
317 326 317 309 302 60 270 120 109 359 44 278 257 158 247 199 357 262 261 230 208 210 218 212 280 83 56 81 117 103 278 211 174 192 259 242 332 196 215 181 158 162 164 167 173 181 180 187 186 186 185 184 183 183 182 181 182 182 184 184 185 186 189 190 189 192 194 201 199 195 207 202 197 202 206 199 213 228 243 279 297 314 321 325 318 310 317 346 338 340 332 342 335 324 332 331 330
330 346 328 340 11 82 265 42 252 206 178 233 256 230 352 338 298 285 257 243 252 291 45 255 186 138 68 82 54 153 260 256 248 258 210 335 110 250 194 174 172 165 163 166 170 178 180 185 186 187 187 185 184 184 183 183 182 184 185 186 186 187 188 190 190 191 194 198 197 205 200 200 204 209 203 206 215 222 238 264 281 294 307 310 306 305 325 327 352 323 335 335 332 329 331 329 328
315 253 293 1 303 18 140 350 153 164 209 209 274 257 243 234 256 257 256 261 266 200 244 236 176 240 114 138 207 83 273 323 197 154 212 213 207 199 168 166 167 155 155 164 174 176 178 186 186 188 189 188 187 185 184 185 185 187 187 188 187 188 190 189 191 193 193 196 199 199 200 205 207 202 199 203 213 218 233 244 269 276 289 300 295 300 318 328 327 326 334 327 333 326 327 330 335
336 303 119 69 181 272 142 208 188 156 221 164 228 250 170 217 260 294 265 269 268 221 225 283 62 302 207 257 188 151 241 240 304 173 207 240 200 166 155 156 149 155 168 172 171 175 179 185 186 188 189 189 189 188 187 187 188 188 188 188 188 189 190 192 193 192 194 195 198 199 203 205 203 198 199 204 205 220 223 242 257 267 282 293 290 288 315 319 326 329 336 328 329 325 332 338 337
319 345 184 183 231 194 38 266 246 219 214 170 224 259 154 216 292 317 293 306 285 279 239 293 220 200 270 214 190 172 202 93 200 172 165 248 170 165 153 150 151 164 171 170 173 173 179 187 186 188 189 190 189 189 189 189 190 191 190 189 190 191 192 193 193 195 195 196 198 202 203 205 202 201 204 203 214 217 234 235 248 261 270 278 283 285 303 309 319 328 321 325 329 328 333 336 337
305 13 341 4 317 53 213 217 235 219 246 183 226 264 239 279 281 301 292 335 280 271 211 235 111 73 13 280 315 247 195 212 115 224 169 180 142 153 150 154 152 167 169 172 174 177 181 188 187 188 190 191 190 190 191 191 192 191 190 189 191 192 194 195 195 196 196 198 201 202 206 205 202 201 199 208 214 220 228 244 254 267 266 265 266 282 291 321 312 320 322 325 329 332 337 336 338
279 152 239 183 240 130 239 216 235 181 252 206 226 253 265 265 269 244 270 226 274 231 209 241 238 130 247 325 200 272 301 199 221 297 152 124 143 152 153 152 158 172 173 174 177 177 184 190 186 189 192 192 192 192 192 193 193 192 190 191 193 194 194 196 197 196 197 201 202 204 207 206 204 200 203 208 214 219 227 241 256 261 269 262 262 274 293 297 306 317 319 321 332 335 335 337 331
356 166 306 97 240 254 247 223 233 219 267 274 271 261 268 251 258 244 269 243 278 244 258 231 214 124 256 221 219 259 291 267 75 160 143 143 156 163 159 164 164 172 177 175 176 176 183 192 187 190 192 194 194 194 194 195 195 192 192 193 194 195 196 196 197 197 198 200 201 205 208 207 206 203 207 208 215 216 220 231 242 249 259 262 267 269 275 289 302 322 314 328 334 337 333 332 332
234 173 252 206 137 237 228 250 216 221 228 229 240 257 270 283 288 244 266 286 249 250 248 323 205 217 247 224 296 309 263 155 118 98 167 166 160 159 166 176 172 165 174 177 175 178 185 193 188 190 195 195 196 196 196 196 194 194 193 193 195 196 197 197 198 198 200 200 203 206 206 208 206 206 208 213 213 215 223 229 229 239 243 259 264 264 271 283 288 306 311 326 337 335 329 329 333
244 317 150 220 221 237 230 242 235 280 247 246 248 249 268 279 269 284 248 254 244 213 297 127 318 248 122 262 212 250 298 187 139 180 189 170 152 164 173 180 173 168 171 177 180 180 183 190 191 191 195 196 197 196 196 195 195 195 196 194 195 197 198 198 199 200 201 201 204 206 208 209 208 206 210 212 216 224 241 239 232 236 246 245 256 260 266 273 285 297 305 317 331 329 329 333 334
236 345 328 235 232 220 228 235 235 244 258 257 257 253 258 265 309 289 286 274 247 230 193 157 220 151 236 310 290 294 337 222 209 167 164 157 167 177 173 179 173 178 171 172 175 183 184 189 193 194 194 197 198 196 194 195 197 197 197 197 196 198 199 200 200 201 202 204 205 207 210 210 209 210 209 211 208 230 251 252 244 249 247 247 250 260 263 271 280 291 302 313 322 329 333 336 336
168 106 282 289 234 216 207 232 235 242 240 236 238 242 241 272 260 258 260 237 278 294 288 217 41 120 262 205 250 314 228 231 226 165 168 168 179 166 172 184 185 171 162 164 171 184 186 189 192 194 195 196 198 197 195 194 197 197 197 199 198 200 201 201 200 202 203 205 206 209 212 212 212 214 212 207 212 226 238 248 254 253 253 250 252 258 262 269 275 287 294 303 318 329 337 345 351
156 179 174 244 77 224 208 244 222 222 239 237 222 243 229 229 249 230 222 287 266 203 237 197 156 162 254 350 305 311 249 236 204 182 166 173 161 151 174 192 187 177 170 168 179 181 185 189 189 192 194 196 196 198 197 195 195 198 197 198 199 200 200 200 201 202 204 205 207 208 211 212 212 213 213 208 212 219 229 239 247 256 258 252 256 255 260 265 274 279 285 300 317 326 341 355 357
187 147 119 251 269 239 220 228 223 231 252 182 233 234 247 240 248 250 208 259 279 217 329 133 183 114 247 178 281 250 241 219 178 163 155 155 147 137 166 194 194 182 180 188 182 177 189 185 189 190 192 193 194 196 195 198 196 197 195 196 199 198 198 200 201 201 202 204 204 203 204 206 212 212 213 210 212 222 228 234 234 248 251 253 257 257 255 261 266 274 282 296 310 323 344 357 358
182 126 149 215 239 222 250 222 212 230 250 195 231 220 230 257 227 257 257 215 262 298 120 216 169 201 215 169 227 231 243 166 147 135 142 153 135 90 127 186 196 195 194 196 194 197 185 186 189 191 193 193 192 193 197 198 199 198 196 195 199 198 197 197 199 200 198 200 200 197 194 194 206 210 210 214 223 228 234 229 226 235 246 252 255 253 252 257 263 268 277 288 302 316 335 348 347
83 110 216 216 251 215 223 208 173 239 219 231 241 238 228 249 280 217 244 157 244 258 286 227 196 181 191 206 227 234 96 104 101 109 123 158 155 192 109 179 204 213 206 212 202 197 195 190 192 191 195 194 190 189 197 197 202 199 198 194 197 199 194 194 199 198 195 196 193 190 187 182 191 195 216 215 229 236 229 233 225 230 240 246 252 253 251 254 261 268 275 283 294 306 329 345 344
137 204 203 238 222 215 213 226 202 232 249 245 251 239 225 263 308 258 5 276 247 272 272 284 301 261 236 255 43 132 138 129 144 139 164 179 181 207 226 220 187 209 203 206 217 204 196 202 196 192 191 197 189 190 194 195 198 202 194 193 195 198 194 193 197 193 191 188 186 183 177 179 186 195 211 229 234 240 243 233 226 232 236 244 249 256 253 255 261 268 277 282 289 305 337 360 342
184 211 182 237 169 239 245 250 280 287 265 272 288 303 244 253 234 294 306 282 291 296 273 267 271 283 286 284 272 107 138 158 162 174 170 184 196 198 209 207 207 217 220 216 215 206 205 197 194 197 198 192 191 194 194 195 196 196 193 190 192 195 192 192 190 190 185 183 183 179 179 185 185 197 208 213 214 229 230 236 232 229 236 240 249 256 260 263 268 278 287 291 288 312 349 344 1
235 168 229 240 214 242 258 271 273 265 292 299 319 302 310 264 243 230 258 271 268 253 262 275 260 261 263 264 274 153 173 191 194 180 189 201 203 200 206 209 213 214 215 206 207 197 195 201 202 199 195 190 190 197 194 195 197 195 191 190 189 188 189 190 187 187 183 184 185 182 183 189 192 198 216 220 223 231 240 242 237 232 232 238 245 260 273 278 280 293 299 290 302 323 318 9 14
264 203 223 222 227 244 251 255 260 271 276 276 278 295 290 286 261 205 260 289 256 257 243 235 250 251 258 255 252 186 199 202 212 219 214 216 216 218 212 205 200 205 210 205 190 198 200 202 197 202 194 191 193 195 195 198 196 195 194 191 186 184 187 187 188 186 184 187 188 185 185 188 199 204 215 229 224 226 232 239 241 241 243 257 260 260 263 273 298 300 294 289 290 273 304 32 43
132 219 210 206 257 237 249 248 250 255 265 277 280 280 273 278 270 249 233 246 257 247 254 216 235 245 252 265 249 196 203 204 210 214 220 223 214 217 225 240 256 264 244 182 212 206 203 202 198 197 187 197 197 194 198 194 184 197 196 193 186 188 185 187 187 188 187 191 189 188 179 192 205 208 213 226 226 207 216 223 227 232 240 243 232 237 253 260 272 268 266 270 267 312 82 79 64
238 274 236 227 228 234 246 250 237 231 254 255 265 265 291 260 272 255 248 239 253 250 255 239 239 246 252 260 261 217 206 214 212 215 220 228 226 227 228 225 218 220 211 219 213 210 206 201 199 187 194 195 202 200 197 191 198 198 196 191 188 194 186 187 192 189 192 189 191 186 184 196 204 208 213 215 219 198 209 215 223 211 220 238 228 213 241 244 251 256 247 235 322 257 68 80 70
213 236 220 248 225 233 243 253 261 264 253 260 249 270 264 276 277 259 251 260 260 266 264 268 266 261 243 256 242 233 214 214 221 218 219 222 219 219 219 220 221 223 213 227 219 207 203 205 199 189 197 193 198 195 194 197 199 195 197 194 198 192 187 195 193 193 187 192 191 192 192 191 195 205 214 205 211 192 212 210 214 211 217 237 230 201 224 237 229 245 229 71 172 95 91 70 64
211 257 245 251 242 237 248 250 257 256 260 262 273 272 263 260 255 283 268 266 261 262 269 271 265 264 253 247 255 253 250 242 233 229 233 234 231 235 236 234 229 216 228 226 216 208 212 205 196 199 197 196 194 189 197 197 194 196 193 196 200 189 195 197 193 188 190 191 193 192 188 195 199 201 204 206 188 200 212 206 206 218 208 233 208 221 207 211 199 221 159 173 134 99 93 79 70
207 224 236 249 253 242 237 251 252 249 256 253 272 266 267 261 282 270 262 259 259 270 267 259 263 265 256 251 250 252 252 249 246 244 234 228 226 228 238 231 225 224 224 223 208 214 211 199 198 202 198 194 191 184 198 191 193 195 197 198 196 192 199 195 189 193 196 187 195 195 195 194 197 199 202 193 183 205 205 207 203 217 206 208 183 212 218 183 196 162 141 159 114 110 95 90 80
185 236 234 240 253 259 260 238 255 250 242 244 247 266 263 277 167 274 245 253 272 259 252 257 263 259 255 252 250 248 251 253 249 245 251 240 227 222 237 231 225 230 225 225 217 215 205 192 205 204 201 194 183 190 193 197 188 199 196 193 192 197 192 190 195 196 196 196 198 194 195 195 193 197 195 190 193 197 200 199 211 214 224 220 187 215 196 188 176 170 159 152 142 105 86 71 85
281 249 295 271 257 256 269 287 265 252 268 232 235 258 268 266 202 253 251 62 158 242 256 265 257 257 252 250 250 253 253 255 252 245 245 246 237 224 233 225 230 233 221 227 221 208 193 201 202 200 197 191 187 194 192 194 195 196 193 189 195 192 184 193 194 196 200 200 197 195 194 194 191 197 192 190 191 193 197 199 209 195 217 220 192 206 179 174 165 158 139 128 113 107 102 72 65
265 43 296 278 306 301 254 240 249 202 256 211 181 282 272 226 233 241 248 259 276 271 269 259 262 261 259 259 257 255 249 252 251 242 239 238 240 227 229 225 225 225 225 225 219 191 201 202 198 200 192 191 191 193 193 195 192 190 188 192 190 186 189 189 194 198 200 200 198 197 196 193 192 191 194 189 191 192 193 194 202 204 207 206 197 193 169 147 136 114 94 104 105 99 90 73 69
340 298 197 301 310 296 261 248 252 202 244 191 125 263 254 243 239 252 262 247 258 264 267 266 261 265 264 259 258 258 258 254 250 241 242 240 238 233 226 233 218 220 226 223 204 204 207 198 196 186 188 192 196 195 191 190 192 189 188 188 188 185 189 190 196 195 197 198 195 197 196 195 194 193 184 191 186 190 192 192 192 205 208 201 191 175 161 161 148 142 135 109 106 104 100 85 81
238 253 74 237 348 260 294 183 235 192 200 162 161 240 264 252 251 258 252 227 231 254 265 263 269 269 264 260 257 257 260 240 243 244 241 238 237 234 227 238 221 220 227 217 203 213 194 194 182 186 188 194 193 194 193 194 189 188 186 188 189 188 187 192 191 191 193 196 191 196 197 196 196 191 186 181 187 187 188 191 190 200 189 174 176 193 165 169 153 159 140 112 94 89 89 76 89
290 3 266 313 200 281 300 291 174 207 281 175 153 240 252 264 270 258 233 182 202 254 266 269 270 264 268 271 263 257 257 254 246 248 246 243 237 237 226 233 219 216 215 215 212 201 192 193 186 188 186 191 193 195 195 192 189 190 190 187 188 188 187 192 190 190 190 190 192 193 196 197 195 191 185 178 181 189 187 187 194 184 170 164 182 178 161 166 178 141 150 138 112 101 104 65 66
339 188 275 275 248 261 330 287 232 237 118 239 180 234 300 273 246 268 94 127 162 250 274 277 280 282 282 275 266 260 265 265 255 248 249 244 243 232 230 230 220 212 212 210 204 192 192 191 189 187 187 192 194 195 194 192 187 190 189 188 188 185 190 193 189 184 185 189 191 194 193 194 194 190 186 181 177 184 188 185 189 175 164 167 167 172 174 182 170 159 159 171 136 143 113 110 75
291 271 226 216 239 290 279 299 330 50 141 210 248 252 255 265 287 289 284 270 286 279 278 278 276 274 272 270 267 260 257 262 259 251 247 241 243 237 233 229 229 217 219 212 204 189 192 189 188 192 192 190 189 191 190 188 187 184 187 187 184 190 195 191 184 180 191 190 189 196 189 191 191 190 185 180 180 181 179 179 179 167 164 165 166 165 191 182 170 156 158 155 140 123 131 128 120
220 233 241 289 289 237 253 297 262 44 234 221 244 246 263 271 274 273 273 278 273 271 270 271 273 272 271 269 265 260 255 255 255 252 250 258 262 249 230 228 227 214 210 209 203 203 190 183 183 189 180 179 182 176 174 169 159 166 165 176 185 194 199 192 180 190 193 187 193 192 187 189 189 187 184 178 177 175 173 176 171 174 164 165 164 179 172 179 160 157 153 125 66 107 146 149 141
207 166 212 250 285 291 274 255 269 253 280 254 239 248 264 268 270 276 273 263 260 266 267 266 266 267 271 268 263 258 252 254 254 261 271 263 249 244 231 222 222 213 207 201 199 188 180 163 170 174 177 170 156 150 150 156 155 171 176 171 192 206 198 191 195 197 187 192 194 189 188 187 186 184 184 180 177 174 174 177 177 170 170 162 169 178 188 183 176 162 159 140 126 67 57 128 123
270 272 289 278 279 281 272 268 257 193 258 247 247 256 264 272 276 278 276 279 265 266 265 265 266 269 268 264 258 254 250 248 256 256 258 238 248 252 262 197 199 170 190 183 180 187 182 176 166 182 177 162 159 160 166 166 171 170 179 194 201 192 195 194 197 200 197 197 188 190 186 187 184 183 184 176 181 175 177 172 170 177 174 170 175 191 184 188 182 163 153 138 139 115 99 133 143
266 279 279 285 252 276 283 288 311 280 211 291 283 284 274 274 282 277 277 267 262 255 260 264 267 266 265 261 260 252 252 284 292 278 189 222 236 152 104 120 142 142 193 166 184 191 182 167 178 175 161 169 174 174 172 177 182 186 183 195 188 185 186 191 202 202 201 190 188 190 187 185 184 186 182 181 179 175 171 172 176 180 176 181 183 181 174 174 165 154 150 121 89 141 162 179 178
255 235 276 293 275 253 282 265 323 248 142 266 309 304 288 287 282 281 273 265 260 252 238 253 259 270 268 264 259 265 274 274 270 241 223 215 239 15 80 100 95 111 157 178 182 157 163 171 182 167 173 174 181 178 172 185 187 187 183 173 177 176 206 203 204 194 179 184 192 191 188 184 185 188 180 180 176 180 175 171 183 176 180 175 170 177 174 174 176 172 176 155 149 68 125 182 189
236 258 282 259 266 7 306 260 14 352 81 295 309 302 288 291 280 268 274 269 261 257 240 242 238 248 256 259 256 251 256 241 211 207 209 207 254 315 38 140 207 85 126 141 165 175 175 178 178 173 178 180 177 183 183 182 173 164 156 149 165 167 179 187 187 174 189 184 194 193 196 189 187 185 180 178 179 179 174 177 173 177 182 179 176 175 181 184 177 178 179 163 147 159 167 198 217
227 209 239 265 274 241 203 293 338 307 298 188 330 295 285 275 283 306 296 293 261 269 252 256 256 240 252 274 285 237 224 191 202 226 249 222 207 205 196 206 309 197 215 208 196 192 185 188 186 178 174 178 177 174 171 151 132 120 109 89 118 109 77 160 168 204 198 194 187 195 202 188 186 184 178 180 180 180 178 174 174 181 178 183 176 179 183 188 185 182 176 165 177 167 184 187 219
303 228 213 237 256 271 267 308 356 345 327 343 46 342 285 283 281 263 282 305 288 231 274 272 262 266 255 247 240 234 249 220 180 197 205 210 217 248 276 256 210 236 241 237 206 206 167 163 158 163 155 164 170 174 165 156 164 159 152 155 168 184 191 180 201 201 190 195 203 186 190 192 183 181 180 182 186 177 180 178 175 175 183 180 184 187 181 168 183 182 190 178 181 185 164 159 202
344 271 196 229 246 259 272 295 41 295 268 317 42 94 279 308 278 288 285 292 291 295 277 282 281 269 245 230 223 220 213 219 260 271 272 226 241 254 281 289 258 234 246 229 230 210 183 164 171 174 173 176 175 174 168 163 166 175 180 184 186 192 198 214 205 187 192 198 174 183 192 181 186 181 185 185 186 185 180 178 179 182 183 183 183 175 181 188 187 191 183 181 187 165 145 178 192
248 249 116 131 139 190 224 186 188 250 279 284 156 170 234 298 288 232 277 278 277 287 296 292 274 258 229 236 233 226 219 210 198 217 233 237 234 199 215 230 234 223 240 214 213 206 187 179 172 178 179 177 179 170 174 176 174 181 187 193 193 198 203 201 187 190 170 166 180 181 173 190 188 189 184 189 188 186 182 182 182 182 183 189 179 188 189 189 182 191 187 189 171 177 180 186 193
217 226 163 83 80 158 106 121 210 256 35 287 335 129 245 246 271 291 270 289 286 293 288 292 293 277 267 247 225 218 220 229 214 204 211 221 222 231 239 246 239 244 247 207 200 201 197 183 173 171 179 177 181 175 176 187 184 183 188 188 200 209 198 187 170 162 167 169 177 174 180 186 190 195 192 188 188 187 186 185 183 184 187 189 189 190 191 182 185 180 184 183 186 192 192 184 164
280 189 85 73 69 71 122 173 242 335 76 268 255 194 218 272 274 292 320 213 275 267 287 297 287 262 265 253 241 249 282 286 233 243 242 261 276 279 251 276 225 224 226 225 219 184 187 168 172 171 191 187 183 183 184 188 189 181 189 195 199 197 181 166 162 170 174 172 182 183 184 182 192 195 198 193 189 191 189 186 187 190 191 188 189 192 186 186 190 190 189 189 187 189 192 181 192
83 59 67 355 31 27 16 67 80 38 235 258 232 219 204 297 270 231 174 208 204 246 294 306 310 306 274 250 249 264 280 278 327 329 329 318 325 305 297 191 221 257 253 239 222 210 192 175 176 184 199 191 185 187 183 191 194 190 195 197 197 191 184 168 169 183 171 173 186 189 189 194 189 198 188 194 194 190 193 192 191 194 189 188 190 189 191 190 192 191 190 188 188 189 188 194 199
104 89 111 15 326 8 35 339 42 189 266 260 245 191 201 215 285 279 253 295 264 170 125 313 303 278 259 258 269 268 252 215 217 239 252 281 278 280 263 234 234 237 263 249 237 229 213 205 178 191 207 199 194 192 189 197 194 201 202 197 198 194 180 181 186 187 186 188 191 192 188 175 192 193 190 193 198 195 194 197 196 190 191 190 196 192 192 193 189 186 185 190 196 196 188 189 194
106 80 46 87 274 22 285 17 263 215 215 262 332 180 256 239 232 282 295 274 270 231 234 266 265 257 246 256 256 253 229 208 195 205 211 218 211 212 223 232 232 235 221 223 231 228 228 210 191 195 220 205 203 193 195 200 199 205 203 201 202 190 189 192 195 195 191 192 190 185 177 194 184 188 201 200 205 195 192 193 192 194 197 198 193 188 197 189 185 188 191 193 194 192 195 190 192
123 162 152 117 207 215 257 262 251 301 292 276 330 44 279 261 285 226 241 254 255 266 249 240 237 240 232 222 227 230 230 209 207 204 214 217 223 228 228 227 224 228 230 227 224 211 215 209 202 198 228 202 201 199 200 200 206 205 202 202 198 190 198 196 201 199 195 195 188 191 191 194 192 201 198 207 202 193 196 199 195 200 201 196 192 193 189 190 186 190 192 195 199 202 192 196 203
202 121 155 181 142 157 222 205 204 217 215 266 287 50 238 52 238 226 224 255 262 240 253 250 244 243 265 273 201 234 236 245 232 229 225 223 229 225 225 226 232 236 241 237 225 217 201 213 201 210 225 220 202 206 202 205 207 204 202 200 196 194 198 199 206 202 191 192 194 194 199 197 200 204 203 209 186 189 200 197 199 200 201 198 191 189 191 189 192 192 195 201 202 195 198 197 208
207 158 84 93 238 134 207 211 158 272 334 345 231 215 206 209 272 302 274 270 266 254 248 244 255 257 204 180 198 208 219 229 223 229 248 251 244 247 249 242 234 231 229 223 224 215 213 221 217 221 221 221 214 215 216 212 213 207 202 199 202 197 198 198 202 201 201 194 193 196 200 200 207 203 204 186 194 189 196 199 198 203 199 197 192 191 188 189 192 193 198 198 206 193 196 201 209
235 118 205 212 176 120 79 12 355 78 38 260 205 311 273 303 298 281 303 343 297 33 207 223 240 227 178 190 200 213 220 215 221 225 228 241 252 253 240 237 234 231 228 218 215 206 207 209 211 222 225 229 223 221 220 219 219 210 216 212 206 204 201 200 202 203 200 196 195 201 199 204 201 195 199 193 192 194 195 197 199 202 199 197 195 194 191 192 189 195 197 198 208 197 197 204 202
103 186 242 222 160 94 135 228 338 68 175 264 107 227 276 48 285 323 337 336 302 309 359 273 254 172 189 211 208 210 213 223 237 238 237 236 236 238 245 249 238 223 214 216 223 211 205 201 201 213 221 222 225 214 215 213 213 215 216 214 214 209 207 211 206 203 197 191 203 203 203 197 203 202 196 192 189 193 197 196 200 201 201 195 198 195 194 193 187 198 202 204 207 189 202 210 209
155 191 260 118 213 211 301 86 285 248 269 270 294 258 261 198 250 326 288 279 279 288 334 130 221 223 224 230 235 243 288 277 254 244 245 246 237 234 230 232 238 238 234 219 221 202 206 213 212 207 216 220 220 215 216 218 211 214 212 212 209 213 214 211 211 205 191 201 204 203 204 209 205 198 192 189 192 194 196 200 200 203 197 200 197 197 192 193 189 198 201 206 203 193 201 210 214
12 360 346 271 109 202 120 211 186 116 261 53 290 6 260 187 218 207 239 248 257 250 281 225 219 217 219 229 225 222 229 230 235 243 244 244 245 238 229 227 231 225 220 220 206 183 208 216 206 217 229 232 226 219 209 212 213 211 218 215 218 209 207 204 200 193 200 206 208 202 205 207 207 190 199 195 194 194 196 198 200 201 199 197 197 199 192 195 192 203 199 203 202 195 204 212 217
170 199 279 354 226 216 118 264 158 180 179 178 211 309 270 240 228 204 241 245 253 222 220 240 231 227 219 216 214 216 222 226 233 234 237 243 248 253 252 245 248 265 265 212 185 199 213 201 212 215 213 218 215 218 205 217 202 210 208 213 214 208 212 206 203 201 203 207 206 204 205 205 182 202 193 197 198 199 198 200 198 199 199 196 197 199 194 193 197 204 205 206 201 197 206 216 214
175 174 203 184 143 163 178 263 33 115 112 245 131 256 283 274 190 224 245 263 277 257 212 237 251 240 222 218 223 216 215 220 222 227 229 239 245 255 264 267 266 272 256 228 222 214 228 214 216 216 217 221 214 215 208 214 206 205 206 211 212 207 208 201 206 208 215 211 208 206 200 185 200 204 191 200 201 200 200 198 197 202 201 200 199 199 194 191 200 202 207 205 206 203 211 217 208